Location: Esp�n
(42.4593°N, 0.2047°W)
Time: 08:10:25
(UTC+00:00)

STARLINK-70 - Pass Details

Date: 10 October 2020
Orbit: 441 x 442 km, 53.0° (Epoch: 21 October)

Event Time Altitude Azimuth Distance (km) Brightness Sun altitude
Exits shadow 04:59:38 18° 307° (NW) 1,163 4.8 -13.5°
Maximum altitude 05:01:02 22° 340° (NNW) 1,004 4.8 -13.2°
Drops below altitude 10° 05:03:52 10° 34° (NE) 1,561 6.5 -12.7°
Sets 05:06:19 0° 50° (NE) 2,433 7.8 -12.2°
